• In Romania
  • List of Countries
  • For 7 days
  • Water Temperature
  • Satellite Maps
  • Weather Map
  • Weather Widgets
  • user-avatar
    Login

    Hourly Weather Lyszkowice

    Today, 23 October, Tuesday

    Time Temperature Precipitation Wind Pressure Humidity
    00:00 +7°C° 0.1 mm 4 mps 743 mmHg 78%
    01:00 +7°C° 0.1 mm 4 mps 743 mmHg 81%
    02:00 +6°C° 0 mm 4 mps 743 mmHg 83%
    03:00 +5°C° 0 mm 4 mps 742 mmHg 86%
    04:00 +5°C° 0 mm 3 mps 742 mmHg 89%
    05:00 +4°C° 0 mm 4 mps 742 mmHg 89%
    06:00 +4°C° 0 mm 4 mps 741 mmHg 89%
    07:00 +4°C° 0 mm 4 mps 741 mmHg 89%
    08:00 +5°C° 0 mm 4 mps 740 mmHg 79%
    09:00 +6°C° 0 mm 5 mps 740 mmHg 69%
    10:00 +8°C° 0 mm 6 mps 739 mmHg 59%
    11:00 +8°C° 0.2 mm 7 mps 738 mmHg 59%
    12:00 +8°C° 0.2 mm 7 mps 737 mmHg 58%
    13:00 +7°C° 0.2 mm 8 mps 736 mmHg 58%
    14:00 +7°C° 0.3 mm 8 mps 735 mmHg 61%
    15:00 +7°C° 0.3 mm 9 mps 734 mmHg 64%
    16:00 +6°C° 0.3 mm 9 mps 733 mmHg 67%
    17:00 +6°C° 0.5 mm 9 mps 732 mmHg 70%
    18:00 +6°C° 0.5 mm 9 mps 732 mmHg 74%
    19:00 +6°C° 0.5 mm 9 mps 731 mmHg 78%
    20:00 +7°C° 0.7 mm 9 mps 730 mmHg 79%
    21:00 +7°C° 0.7 mm 10 mps 729 mmHg 80%
    22:00 +8°C° 0.7 mm 10 mps 729 mmHg 80%
    23:00 +8°C° 1.2 mm 10 mps 728 mmHg 81%

    Tomorrow, 24 October, Wednesday

    Time Temperature Precipitation Wind Pressure Humidity
    00:00 +8°C° 1.2 mm 10 mps 727 mmHg 81%
    01:00 +9°C° 1.2 mm 10 mps 726 mmHg 82%
    02:00 +8°C° 1.6 mm 10 mps 725 mmHg 82%
    03:00 +8°C° 1.6 mm 11 mps 724 mmHg 83%
    04:00 +8°C° 1.6 mm 11 mps 723 mmHg 83%
    05:00 +7°C° 1 mm 11 mps 724 mmHg 78%
    06:00 +6°C° 1 mm 11 mps 725 mmHg 73%
    07:00 +3°C° 1 mm 10 mps 725 mmHg 68%
    08:00 +4°C° 0.2 mm 11 mps 726 mmHg 62%
    09:00 +4°C° 0.2 mm 11 mps 727 mmHg 56%
    10:00 +4°C° 0.2 mm 11 mps 728 mmHg 50%
    11:00 +4°C° 0.1 mm 11 mps 728 mmHg 48%
    12:00 +4°C° 0.1 mm 11 mps 729 mmHg 46%
    13:00 +6°C° 0.1 mm 11 mps 729 mmHg 45%
    14:00 +5°C° 0 mm 10 mps 729 mmHg 46%
    15:00 +5°C° 0 mm 10 mps 730 mmHg 47%
    16:00 +3°C° 0 mm 9 mps 730 mmHg 47%
    17:00 +3°C° 0 mm 9 mps 731 mmHg 49%
    18:00 +4°C° 0 mm 8 mps 732 mmHg 50%
    19:00 +2°C° 0 mm 8 mps 733 mmHg 52%
    20:00 +2°C° 0 mm 8 mps 733 mmHg 54%
    21:00 +1°C° 0 mm 8 mps 733 mmHg 55%
    22:00 +2°C° 0 mm 7 mps 734 mmHg 57%
    23:00 +2°C° 0 mm 7 mps 734 mmHg 61%

    Day after tomorrow, 25 October, Thursday

    Time Temperature Precipitation Wind Pressure Humidity
    00:00 +2°C° 0 mm 7 mps 734 mmHg 64%
    01:00 +2°C° 0 mm 6 mps 735 mmHg 68%
    02:00 +1°C° 0 mm 6 mps 735 mmHg 69%
    03:00 +1°C° 0 mm 6 mps 735 mmHg 71%
    04:00 +1°C° 0 mm 6 mps 735 mmHg 73%
    05:00 +1°C° 0 mm 6 mps 735 mmHg 73%
    06:00 +1°C° 0 mm 6 mps 734 mmHg 73%
    07:00 +2°C° 0 mm 6 mps 734 mmHg 73%
    08:00 +2°C° 0.4 mm 6 mps 733 mmHg 75%
    09:00 +3°C° 0.4 mm 7 mps 733 mmHg 78%
    10:00 +3°C° 0.4 mm 7 mps 732 mmHg 80%
    11:00 +5°C° 0.4 mm 7 mps 731 mmHg 81%
    12:00 +6°C° 0.4 mm 8 mps 731 mmHg 82%
    13:00 +9°C° 0.4 mm 8 mps 730 mmHg 83%
    14:00 +9°C° 0.4 mm 8 mps 730 mmHg 82%
    15:00 +9°C° 0.4 mm 8 mps 730 mmHg 81%
    16:00 +9°C° 0.4 mm 8 mps 730 mmHg 80%
    17:00 +7°C° 0.3 mm 8 mps 731 mmHg 80%
    18:00 +8°C° 0.3 mm 7 mps 731 mmHg 80%
    19:00 +7°C° 0.3 mm 6 mps 732 mmHg 80%
    20:00 +5°C° 0.1 mm 6 mps 732 mmHg 80%
    21:00 +5°C° 0.1 mm 6 mps 732 mmHg 81%
    22:00 +5°C° 0.1 mm 5 mps 733 mmHg 82%
    23:00 +5°C° 0 mm 5 mps 733 mmHg 83%

    26 October, Friday

    Time Temperature Precipitation Wind Pressure Humidity
    00:00 +5°C° 0 mm 5 mps 733 mmHg 84%
    01:00 +3°C° 0 mm 5 mps 734 mmHg 85%
    02:00 +4°C° 0 mm 4 mps 734 mmHg 86%
    03:00 +4°C° 0 mm 4 mps 734 mmHg 87%
    04:00 +4°C° 0 mm 4 mps 734 mmHg 88%
    05:00 +4°C° 0 mm 4 mps 734 mmHg 88%
    06:00 +4°C° 0 mm 3 mps 734 mmHg 89%
    07:00 +4°C° 0 mm 3 mps 734 mmHg 89%
    08:00 +5°C° 0 mm 4 mps 734 mmHg 83%
    09:00 +7°C° 0 mm 4 mps 734 mmHg 77%
    10:00 +8°C° 0 mm 4 mps 734 mmHg 71%
    11:00 +10°C° 0 mm 4 mps 734 mmHg 70%
    12:00 +11°C° 0 mm 4 mps 734 mmHg 70%
    13:00 +11°C° 0 mm 4 mps 733 mmHg 70%
    14:00 +11°C° 0 mm 3 mps 733 mmHg 72%
    15:00 +11°C° 0 mm 3 mps 733 mmHg 75%
    16:00 +10°C° 0 mm 2 mps 732 mmHg 77%
    17:00 +10°C° 0 mm 2 mps 732 mmHg 79%
    18:00 +9°C° 0 mm 2 mps 732 mmHg 82%
    19:00 +8°C° 0 mm 2 mps 732 mmHg 84%
    20:00 +8°C° 0 mm 2 mps 731 mmHg 84%
    21:00 +8°C° 0 mm 3 mps 731 mmHg 84%
    22:00 +8°C° 0 mm 3 mps 731 mmHg 84%
    23:00 +8°C° 0 mm 3 mps 730 mmHg 85%

    27 October, Saturday

    Time Temperature Precipitation Wind Pressure Humidity
    00:00 +8°C° 0 mm 3 mps 730 mmHg 86%
    01:00 +8°C° 0 mm 2 mps 730 mmHg 88%
    02:00 +8°C° 0 mm 2 mps 729 mmHg 88%
    03:00 +8°C° 0 mm 2 mps 729 mmHg 89%
    04:00 +8°C° 0 mm 2 mps 728 mmHg 90%
    05:00 +8°C° 0 mm 2 mps 728 mmHg 90%
    06:00 +8°C° 0 mm 2 mps 728 mmHg 90%
    07:00 +8°C° 0 mm 2 mps 728 mmHg 91%
    08:00 +9°C° 0 mm 2 mps 728 mmHg 85%
    09:00 +12°C° 0 mm 2 mps 728 mmHg 80%
    10:00 +12°C° 0 mm 3 mps 728 mmHg 74%
    11:00 +13°C° 0.5 mm 2 mps 728 mmHg 76%
    12:00 +12°C° 0.5 mm 2 mps 728 mmHg 78%
    13:00 +12°C° 0.5 mm 2 mps 728 mmHg 79%
    14:00 +10°C° 1.4 mm 2 mps 728 mmHg 83%
    15:00 +9°C° 1.4 mm 2 mps 728 mmHg 86%
    16:00 +8°C° 1.4 mm 3 mps 727 mmHg 89%
    17:00 +8°C° 0.6 mm 2 mps 728 mmHg 89%
    18:00 +7°C° 0.6 mm 2 mps 728 mmHg 89%
    19:00 +8°C° 0.6 mm 1 mps 728 mmHg 89%
    20:00 +7°C° 0.6 mm 2 mps 728 mmHg 88%
    21:00 +7°C° 0.6 mm 2 mps 728 mmHg 87%
    22:00 +7°C° 0.6 mm 2 mps 727 mmHg 86%
    23:00 +5°C° 1.2 mm 3 mps 727 mmHg 84%

    28 October, Sunday

    Time Temperature Precipitation Wind Pressure Humidity
    00:00 +5°C° 1.2 mm 3 mps 727 mmHg 83%
    01:00 +5°C° 1.2 mm 3 mps 726 mmHg 82%
    02:00 +4°C° 1.2 mm 3 mps 726 mmHg 83%
    03:00 +4°C° 1.2 mm 4 mps 726 mmHg 83%
    04:00 +4°C° 1.2 mm 4 mps 725 mmHg 84%
    05:00 +4°C° 0.8 mm 3 mps 725 mmHg 85%
    06:00 +4°C° 0.8 mm 3 mps 725 mmHg 85%
    07:00 +3°C° 0.8 mm 3 mps 725 mmHg 86%
    08:00 +5°C° 0.1 mm 2 mps 726 mmHg 85%
    09:00 +5°C° 0.1 mm 2 mps 726 mmHg 84%
    10:00 +5°C° 0.1 mm 2 mps 727 mmHg 83%
    11:00 +5°C° 0.2 mm 2 mps 728 mmHg 82%
    12:00 +5°C° 0.2 mm 3 mps 728 mmHg 82%
    13:00 +5°C° 0.2 mm 4 mps 729 mmHg 81%
    14:00 +5°C° 0 mm 3 mps 730 mmHg 80%
    15:00 +4°C° 0 mm 3 mps 731 mmHg 80%
    16:00 +5°C° 0 mm 2 mps 732 mmHg 79%
    17:00 +4°C° 0 mm 2 mps 733 mmHg 82%
    18:00 +4°C° 0 mm 2 mps 733 mmHg 85%
    19:00 +3°C° 0 mm 2 mps 734 mmHg 87%
    20:00 +3°C° 0 mm 2 mps 734 mmHg 88%
    21:00 +2°C° 0 mm 2 mps 735 mmHg 88%
    22:00 +3°C° 0 mm 1 mps 735 mmHg 89%
    23:00 +3°C° 0 mm 1 mps 736 mmHg 89%
    Show more